Skip Page Navigation
NASA JPL Caltech
NASA Logo - Jet Propulsion Laboratory + View the NASA Portal
+ Center for Near-Earth Object Studies
JPL Home Earth Solar System Stars & Galaxies Technology
JPL Solar System Dynamics
BODIES ORBITS EPHEMERIDES TOOLS PHYSICAL DATA DISCOVERY FAQ SITE MAP
JPL Small-Body Database Browser
Search: [ help ]  
(2008 UB95)
Classification: Aten [NEO]          SPK-ID: 3435023
Ephemeris | Orbit Diagram | Orbital Elements | Mission Design | Physical Parameters | Close-Approach Data ]

[ hide orbit diagram ]
Orbit Diagram
[ switch to new HTML5 viewer ]

Note: This Java-based orbit viewer will eventually be retired.

Note: Make sure you have Java enabled on your browser to see the applet. This applet is provided as a 3D orbit visualization tool. The applet was implemented using two-body methods, and hence should not be used for determining accurate long-term trajectories (over several years or decades) or planetary encounter circumstances. For accurate long-term ephemerides, please instead use our Horizons system.

Note: If the applet is not working, here are some notes that might help.
Orbit Viewer

Additional Notes: the orbits shown in the applet are color coded. The planets are white lines, and the asteroid/comet is a blue line. The bright white line indicates the portion of the orbit that is above the ecliptic plane, and the darker portion is below the ecliptic plane. Likewise for the asteroid/comet orbit, the light blue indicates the portion above the ecliptic plane, and the dark blue the portion below the ecliptic plane.

Orbit Viewer applet originally written and kindly provided by Osamu Ajiki (AstroArts), and further modified by Ron Baalke (JPL).


Orbital Elements at Epoch 2459000.5 (2020-May-31.0) TDB
Reference: JPL 19 (heliocentric ecliptic J2000)
 Element Value Uncertainty (1-sigma)   Units 
e .2685899940210554 8.543e-07  
a .9904503948400029 3.5309e-08 au
q .7244253292117745 8.7195e-07 au
i 3.252456830903765 4.667e-06 deg
node 21.70971717857153 4.7646e-05 deg
peri 253.3410566021655 3.811e-05 deg
M 5.364317506804438 0.00014082 deg
tp 2458995.135126382854
(2020-May-25.63512638)
0.00014056 TDB
period 360.0373206326418
0.99
1.9253e-05
5.271e-08
d
yr
n .9998963423220233 5.3468e-08 deg/d
Q 1.256475460468231 4.4792e-08 au
  Orbit Determination Parameters
   # obs. used (total)      66  
   data-arc span      4139 days (11.33 yr)  
   first obs. used      2008-10-29  
   last obs. used      2020-02-28  
   planetary ephem.      DE431  
   SB-pert. ephem.      SB431-N16  
   condition code      1  
   norm. resid. RMS      .42401  
   source      ORB  
   producer      Otto Matic  
   solution date      2020-Feb-28 05:42:02  

Additional Information
 Earth MOID = .000187921 au 
 Jupiter MOID = 3.83873 au 
 T_jup = 6.093 
[ hide covariance matrix ]
Orbital Elements at Epoch 2457324.5 (2015-Oct-29.0) TDB
Reference: JPL 19 (heliocentric ecliptic J2000)
 Element Value Uncertainty (1-sigma)   Units 
e .2686321764002858 8.5375e-07  
q .7237108102002496 8.6822e-07 au
tp 2457197.185424691095
(2015-Jun-23.68542469)
6.0465e-05 TDB
node 21.99096783990945 4.7356e-05 deg
peri 253.3822868283635 3.9462e-05 deg
i 3.237378005028127 4.672e-06 deg
  Orbit Determination Parameters
   # obs. used (total)      66  
   data-arc span      4139 days (11.33 yr)  
   first obs. used      2008-10-29  
   last obs. used      2020-02-28  
   planetary ephem.      DE431  
   SB-pert. ephem.      SB431-N16  
   condition code      1  
   norm. resid. RMS      .42401  
   source      ORB  
   producer      Otto Matic  
   solution date      2020-Feb-28 05:42:02  

Additional Information
 Jupiter MOID = 3.83873 au 
 T_jup = 6.093 
Orbit Covariance (6×6)
  e q tp node peri i
e 7.288866356383769E-13 -7.412409915213542E-13 -4.309908604729365E-11 -8.060317346016775E-12 -1.548842605649825E-11 2.311578366388111E-12
q -7.412409915213542E-13 7.538055776758752E-13 4.385302215029381E-11 8.217783533202141E-12 1.574876707663666E-11 -2.349909714786332E-12
tp -4.309908604729365E-11 4.385302215029381E-11 3.656034742602491E-9 1.484707016989729E-9 8.321572052683419E-10 -9.344006640217325E-11
node -8.060317346016775E-12 8.217783533202141E-12 1.484707016989729E-9 2.242631386330286E-9 -1.130263254922419E-9 3.501775345993028E-11
peri -1.548842605649825E-11 1.574876707663666E-11 8.321572052683419E-10 -1.130263254922419E-9 1.557274566790924E-9 -7.313935231170259E-11
i 2.311578366388111E-12 -2.349909714786332E-12 -9.344006640217325E-11 3.501775345993028E-11 -7.313935231170259E-11 2.182768020221927E-11

Ephemeris | Orbit Diagram | Orbital Elements | Mission Design | Physical Parameters | Close-Approach Data ]

Physical Parameter Table
Parameter Symbol Value Units Sigma Reference Notes
absolute magnitude H 24.7   n/a MPO163869  

[ hide close-approach data ]
Close-Approach Data   ...sorted by Date/Time (TDB)
Date/Time (TDB) Time Uncertainty
(days_HH:MM)
Body Nominal Distance (au) Minimum Distance (au) Maximum Distance (au) V-relative (km/s) V-infinity (km/s) JD (TDB) Time Uncertainty (minutes) Semi-major axis (km) Semi-minor axis (km) range-LOV angle (deg) N-sigma BP Orbit Ref. Reference Modified
1900-Aug-25 09:54 00:20 Earth 0.228009583076541 0.22797244930711 0.228046717396742 6.75846104563533 6.75673175891539 2415256.912372694 20.219914712881 1934.35963552716 74.0198787713235 16.9635931791423 59439.8784523029 T 19 CATAB v2.0f-lin.ifort 2020-Feb-28 05:42:04 2020-Feb-28 05:42
1900-Nov-13 21:51 00:18 Earth 0.211806610280499 0.211771003966315 0.211842216732972 6.39058894634064 6.38862015873788 2415337.410659691 17.9590973968792 1796.06622528863 133.946686569989 8.86265785990006 26853.2543751389 T 19 CATAB v2.0f-lin.ifort 2020-Feb-28 05:42:04 2020-Feb-28 05:42
1901-Aug-10 04:09 00:12 Earth 0.258122818765187 0.258100057896733 0.258145579673859 8.18945229283968 8.18819172992525 2415606.672929677 12.1508044621023 1146.35293810173 67.3546416424678 8.26458734793908 44258.9282551584 T 19 CATAB v2.0f-lin.ifort 2020-Feb-28 05:42:04 2020-Feb-28 05:42
1901-Nov-25 18:30 00:13 Earth 0.243751711220773 0.243729152284245 0.243774270334252 6.95253561600733 6.95096318870749 2415714.271146302 12.5859494957895 1172.22289047581 126.028958928276 16.499366853649 58977.1138103468 T 19 CATAB v2.0f-lin.ifort 2020-Feb-28 05:42:04 2020-Feb-28 05:42
1902-Jul-28 11:39 00:08 Earth 0.278122923535396 0.27810860183594 0.278137245234773 9.17571701733497 9.17467287363996 2415958.985245662 7.89478097935868 714.130120459082 54.8295550060887 1.36807976287576 32384.8931922774 T 19 CATAB v2.0f-lin.ifort 2020-Feb-28 05:42:04 2020-Feb-28 05:42
1902-Dec-06 03:59 00:09 Earth 0.26545336898703 0.265438979458998 0.26546775869313 7.3622959369479 7.36093244975831 2416089.666115931 8.88701311037084 796.807914462162 102.649734423747 26.0417215637897 122440.476361301 T 19 CATAB v2.0f-lin.ifort 2020-Feb-28 05:42:04 2020-Feb-28 05:42
1903-Jul-16 20:55 00:05 Earth 0.290764066978597 0.290754922860976 0.290773211102582 9.82908873599167 9.82815638601488 2416312.371390624 5.05503403462823 461.051114304101 44.9521599427346 -8.65536068980933 96754.3373271 T 19 CATAB v2.0f-lin.ifort 2020-Feb-28 05:42:04 2020-Feb-28 05:42
1903-Dec-15 21:04 00:06 Earth 0.278902711116207 0.27889319911162 0.278912223278968 7.60335448675332 7.6020979063842 2416464.377705942 6.24257893053176 580.075360737589 59.9937755775756 35.389237174579 274403.792000755 T 19 CATAB v2.0f-lin.ifort 2020-Feb-28 05:42:04 2020-Feb-28 05:42
1904-Jul-04 17:37 00:03 Earth 0.29722048886171 0.297214156269681 0.297226821478659 10.1898538377983 10.1889740368878 2416666.234118780 3.38726100112458 344.436302764567 50.9438415158614 -23.8498846091161 219320.102452266 T 19 CATAB v2.0f-lin.ifort 2020-Feb-28 05:42:04 2020-Feb-28 05:42
1904-Dec-24 04:32 00:04 Earth 0.284968620469262 0.284961150206896 0.284976090854688 7.67669855733665 7.67548047881332 2416838.688974773 4.16588417301293 475.458895080807 11.1166478848109 38.4555607274636 1643930.80333109 T 19 CATAB v2.0f-lin.ifort 2020-Feb-28 05:42:04 2020-Feb-28 05:42
1905-Jun-23 19:33 00:04 Earth 0.297891858942942 0.297886248130655 0.297897469804656 10.27007587482 10.2692049142669 2417020.314280376 3.55563348335124 343.574748389419 78.5637756016885 -36.6182192548197 211323.602199554 T 19 CATAB v2.0f-lin.ifort 2020-Feb-28 05:42:04 2020-Feb-28 05:42
1906-Jan-02 09:01 00:03 Earth 0.283793929686187 0.283785918619201 0.283801940830865 7.64859014230638 7.64736252579895 2417212.875607978 2.59115583546073 463.341311503375 27.4595371700643 30.5282414909556 469095.785182043 T 19 CATAB v2.0f-lin.ifort 2020-Feb-28 05:42:04 2020-Feb-28 05:42
1906-Jun-12 22:30 00:05 Earth 0.292994599766465 0.292987842577994 0.293001357035079 10.0773333343575 10.0764308772632 2417374.437227672 5.25995044516096 423.031077405451 110.287263566501 -38.7962997850679 154295.744260542 T 19 CATAB v2.0f-lin.ifort 2020-Feb-28 05:42:04 2020-Feb-28 05:42
1907-Jan-11 21:29 00:03 Earth 0.275257825783192 0.275246843077097 0.27526880852698 7.4779273609653 7.47663278054702 2417587.394795309 2.76438091701514 570.790026778483 27.4892447088464 16.443976230397 284238.388775326 T 19 CATAB v2.0f-lin.ifort 2020-Feb-28 05:42:04 2020-Feb-28 05:42
1907-Jun-01 18:15 00:08 Earth 0.282264331998102 0.28225460741155 0.282274056703355 9.60687155977677 9.60588891492882 2417728.260358855 7.74042621446435 570.186081311466 131.64674372455 -32.754628480968 106125.144653165 T 19 CATAB v2.0f-lin.ifort 2020-Feb-28 05:42:04 2020-Feb-28 05:42
1908-Jan-22 00:05 00:05 Earth 0.258790407290211 0.25877375115451 0.258807063437459 7.11821564218613 7.11676907978441 2417962.503776073 5.07164021927001 835.037816016343 11.2720974826368 6.10304702899517 239406.656816874 T 19 CATAB v2.0f-lin.ifort 2020-Feb-28 05:42:04 2020-Feb-28 05:42
